Volver al catálogo

DELTA 1 R/B

ActivoHEO
NORAD 3315·ROCKET BODY·🇺🇸 United States

Lanzado Jul 4, 1968 desde Vandenberg Space Force Base

Loading…

Próximos Pases (próximas 24 horas)

TLE

ActualizadoSource: Space-Track

Época: Sep 14, 2026, 04:03 UTC

1 03315U 68055B   26257.16934694  .00000110  00000-0  34900-3 0  9991
2 03315 120.6672 351.9663 2628195 286.6519  72.0359  9.25767284949795

Sigue DELTA 1 R/B en tiempo real con AllMySat

Download on the App Store